Location: Errabaliem
(16.8108°N, 80.4255°E)
Time: 17:15:24
(UTC+00:00)

Meteosat 1 Rocket2 - Pass Details

Date: 05 August 2024
Orbit: 484 x 2282 km, 28.3° (Epoch: 12 September)

Event Time Altitude Azimuth Distance (km) Brightness Sun altitude
Rises 14:49:15 0° 249° (WSW) 3,190 7.3 -23.1°
Reaches altitude 10° 14:52:01 10° 251° (WSW) 2,051 6.3 -23.7°
Enters shadow 14:56:13 68° 296° (WNW) 582 3.0 -24.6°
